This is the latest recevied weather packets stored in our database for station/object KD7JB. If no packets are shown the sender has not sent any weather packets the latest 10 day(s).
| Time | Temp. | Humidity | Pressure | Rain* | Wind** | Luminosity | Snow |
|---|---|---|---|---|---|---|---|
| 1777556508 | 10.56° C | 58% | 1183.3 hPa | 0 mm | - | 42 W/m² | - |
| 1777556207 | 11.11° C | 55% | 1183.5 hPa | 0 mm | - | 36 W/m² | - |
| 1777555903 | 11.11° C | 55% | 1183.4 hPa | 0 mm | - | 29 W/m² | - |
| 1777555599 | 11.11° C | 54% | 1183.3 hPa | 0 mm | - | 25 W/m² | - |
| 1777555296 | 10.56° C | 55% | 1183.2 hPa | 0 mm | - | 22 W/m² | - |
| 1777554992 | 10.56° C | 55% | 1183.1 hPa | 0 mm | - | 19 W/m² | - |
| 1777554690 | 10.56° C | 55% | 1183.3 hPa | 0 mm | - | 16 W/m² | - |
| 1777554386 | 10° C | 56% | 1183.1 hPa | 0 mm | - | 13 W/m² | - |
| 1777554083 | 10° C | 56% | 1183.1 hPa | 0 mm | - | 10 W/m² | - |
| 1777553780 | 10° C | 56% | 1183.3 hPa | 0 mm | - | 8 W/m² | - |
| 1777553477 | 10° C | 56% | 1183.1 hPa | 0 mm | - | 5 W/m² | - |
| 1777553173 | 10° C | 56% | 1183.1 hPa | 0 mm | - | 3 W/m² | - |
| 1777552868 | 10° C | 56% | 1183.2 hPa | 0 mm | - | 2 W/m² | - |
| 1777552563 | 10° C | 56% | 1183.2 hPa | 0 mm | - | 1 W/m² | - |
| 1777552260 | 10° C | 56% | 1183.2 hPa | 0 mm | - | 1 W/m² | - |
| 1777551956 | 10° C | 56% | 1183.2 hPa | 0 mm | - | 0 W/m² | - |
| 1777551654 | 10° C | 56% | 1183.2 hPa | 0 mm | - | 0 W/m² | - |
| 1777551352 | 10° C | 56% | 1183.2 hPa | 0 mm | - | 0 W/m² | - |
| 1777551048 | 10° C | 56% | 1183.1 hPa | 0 mm | - | 0 W/m² | - |
| 1777550744 | 10° C | 56% | 1183.4 hPa | 0 mm | - | 0 W/m² | - |
| 1777550441 | 10° C | 56% | 1183.2 hPa | 0 mm | - | 0 W/m² | - |
| 1777550137 | 10° C | 56% | 1183.2 hPa | 0 mm | - | 0 W/m² | - |
| 1777549834 | 10° C | 57% | 1183.4 hPa | 0 mm | - | 0 W/m² | - |
| 1777549530 | 10.56° C | 58% | 1183.3 hPa | 0 mm | - | 0 W/m² | - |
| 1777549226 | 10° C | 59% | 1183.3 hPa | 0 mm | - | 0 W/m² | - |
* Rain latest hour (hover to see other rain measurements)
** Current wind speed in m/s (hover to see current wind gust speed)